Weather in Gromovo

Russia / Republic of Crimea     45°23′20″N   32°52′09″E
temp.,
°C
wind,
m/s
gust,
m/s
humid.,
%
clouds,
%
prec.,
mm/h
press.,
hPa
HPBL,
m
5 march, fri
fri500:00+6ssw1014800 0.0 1016466
03:00+7ssw914821 0.0 1015418
06:00+7ssw8138333 0.0 1013365
09:00+8ssw8138534 0.0 1012393
12:00+9ssw710810 0.0 1013320
15:00+9sw68738 0.0 1012269
18:00+8wsw457550 0.0 1013180
21:00+7wsw337864 0.0 101446
6 march, sat
sat600:00+7sw4581100 0.0 101382
03:00+7ssw5778100 0.0 101399
06:00+7wsw69836 0.0 1012165
09:00+6nw10128853 0.0 1015497
12:00+3n111382100 0.0 1018659
15:00+4n101168100 0.0 10201064
18:00+4n91055100 0.0 10231525
21:00+2n9105468 0.0 10261133
7 march, sun
sun700:00+1nne67540 0.0 1028658
03:000n45500 0.0 1029479
06:00+1wnw34470 0.0 1029558
09:00+3w66450 0.0 10291314
12:00+4w78490 0.0 10281541
15:00+4w89510 0.0 10261460
18:00+4wsw79510 0.0 10231203
21:00+3sw710560 0.0 1023699
8 march, mon
mon800:00+4sw710630 0.0 1022752
03:00+4sw810678 0.0 1020758
06:00+4sw8117255 0.0 1018859
09:00+5sw8107271 0.1 10181238
12:00+6wsw8107099 0.2 10171275
15:00+6wsw797185 0.4 10161155
18:00+6wsw577284 0.1 1015850
21:00+6wsw577892 0.4 1015517
9 march, tue
tue900:00+5wsw588151 0.4 1015505
03:00+5wnw238243 1.0 1013152
06:00+4e117830 0.2 101356
09:00+4n897415 0.2 1015533
12:00+3nnw8108182 0.0 1017762
15:00+4nnw995355 0.0 10181226
18:00+3n895140 0.0 10191652
21:00+2nne895858 0.0 10221017